AVA51R SLLP-SLVR

Flight info

Callsign AVA51R
Flight time 0h 47m
Altitude 35000
Route DAKOG UW677 VIR
Aircraft A320/M-SDE3FGHIRWY/LB1

Departure

Time 2026-04-26 14:59
Airport El Alto International Airport (SLLP)

Arrival

Time 2026-04-26 15:47
Airport Viru Viru International Airport (SLVR)
Time Latitude Longitude Altitude Speed Heading
2026-04-26 14:31 -16.50968 -68.17687 13336 ft 0 kts 27°
2026-04-26 14:36 -16.50968 -68.17688 13336 ft 0 kts 27°
2026-04-26 14:50 -16.50972 -68.17689 13336 ft 3 kts 28°
2026-04-26 14:50 -16.50994 -68.17705 13335 ft 4 kts 49°
2026-04-26 14:50 -16.51005 -68.17727 13334 ft 4 kts 96°
2026-04-26 14:50 -16.51002 -68.17741 13333 ft 1 kts 119°
2026-04-26 14:51 -16.51001 -68.17743 13333 ft 0 kts 119°
2026-04-26 14:53 -16.51002 -68.17741 13333 ft 1 kts 119°
2026-04-26 14:53 -16.51011 -68.17724 13334 ft 3 kts 120°
2026-04-26 14:53 -16.51026 -68.17698 13336 ft 5 kts 120°
2026-04-26 14:54 -16.51046 -68.17660 13336 ft 6 kts 119°
2026-04-26 14:54 -16.51075 -68.17616 13334 ft 9 kts 130°
2026-04-26 14:54 -16.51122 -68.17558 13332 ft 12 kts 130°
2026-04-26 14:54 -16.51183 -68.17483 13330 ft 15 kts 130°
2026-04-26 14:55 -16.51253 -68.17399 13329 ft 12 kts 132°
2026-04-26 14:55 -16.51288 -68.17373 13328 ft 0 kts 155°
2026-04-26 14:57 -16.51297 -68.17369 13327 ft 3 kts 156°
2026-04-26 14:57 -16.51324 -68.17363 13325 ft 4 kts 174°
2026-04-26 14:57 -16.51359 -68.17363 13326 ft 6 kts 181°
2026-04-26 14:58 -16.51387 -68.17378 13328 ft 4 kts 240°
2026-04-26 14:58 -16.51390 -68.17412 13325 ft 0 kts 271°
2026-04-26 14:58 -16.51390 -68.17432 13325 ft 18 kts 271°
2026-04-26 14:58 -16.51377 -68.17800 13320 ft 82 kts 272°
2026-04-26 14:59 -16.51353 -68.18600 13295 ft 136 kts 272°
2026-04-26 14:59 -16.51318 -68.19742 13251 ft 181 kts 272°
2026-04-26 14:59 -16.51264 -68.21174 13432 ft 200 kts 272°
2026-04-26 14:59 -16.51242 -68.22119 14134 ft 191 kts 271°
2026-04-26 15:00 -16.51208 -68.23983 14956 ft 193 kts 270°
2026-04-26 15:00 -16.51193 -68.25431 15110 ft 210 kts 271°
2026-04-26 15:00 -16.51147 -68.27031 15237 ft 229 kts 272°
2026-04-26 15:00 -16.51080 -68.28744 15359 ft 247 kts 272°
2026-04-26 15:01 -16.51059 -68.30596 15438 ft 267 kts 262°
2026-04-26 15:01 -16.51813 -68.32415 15505 ft 287 kts 228°
2026-04-26 15:01 -16.53499 -68.33597 15617 ft 308 kts 197°
2026-04-26 15:01 -16.55705 -68.33737 15732 ft 329 kts 167°
2026-04-26 15:02 -16.57822 -68.32700 15856 ft 349 kts 139°
2026-04-26 15:02 -16.59326 -68.30655 16073 ft 364 kts 113°
2026-04-26 15:02 -16.60115 -68.28141 16552 ft 370 kts 105°
2026-04-26 15:02 -16.60831 -68.25537 17148 ft 374 kts 105°
2026-04-26 15:03 -16.61543 -68.22943 17728 ft 377 kts 105°
2026-04-26 15:03 -16.62313 -68.20287 18298 ft 381 kts 110°
2026-04-26 15:03 -16.63356 -68.17754 18857 ft 384 kts 116°
2026-04-26 15:03 -16.64619 -68.15263 19323 ft 388 kts 119°
2026-04-26 15:04 -16.65987 -68.12828 19774 ft 391 kts 121°
2026-04-26 15:04 -16.67399 -68.10399 20224 ft 395 kts 121°
2026-04-26 15:04 -16.68808 -68.07948 20687 ft 398 kts 120°
2026-04-26 15:04 -16.70221 -68.05424 21158 ft 401 kts 119°
2026-04-26 15:05 -16.71598 -68.02894 21609 ft 404 kts 118°
2026-04-26 15:05 -16.72515 -68.01174 21902 ft 407 kts 118°
2026-04-26 15:05 -16.74310 -67.97696 22496 ft 411 kts 113°
2026-04-26 15:05 -16.75103 -67.94854 22934 ft 412 kts 101°
2026-04-26 15:06 -16.75731 -67.91904 23385 ft 416 kts 103°
2026-04-26 15:06 -16.76454 -67.88985 23840 ft 419 kts 104°
2026-04-26 15:06 -16.77230 -67.86065 24233 ft 422 kts 105°
2026-04-26 15:06 -16.78028 -67.83103 24620 ft 424 kts 105°
2026-04-26 15:07 -16.79594 -67.77118 25397 ft 429 kts 104°
2026-04-26 15:07 -16.80353 -67.74105 25769 ft 432 kts 104°
2026-04-26 15:07 -16.81102 -67.71071 26133 ft 434 kts 104°
2026-04-26 15:08 -16.81847 -67.68025 26502 ft 436 kts 104°
2026-04-26 15:08 -16.82608 -67.64917 26871 ft 439 kts 104°
2026-04-26 15:08 -16.83363 -67.61840 27198 ft 442 kts 104°
2026-04-26 15:08 -16.84136 -67.58706 27557 ft 444 kts 104°
2026-04-26 15:09 -16.84905 -67.55600 27903 ft 447 kts 104°
2026-04-26 15:09 -16.85689 -67.52430 28244 ft 449 kts 104°
2026-04-26 15:09 -16.86466 -67.49284 28590 ft 451 kts 104°
2026-04-26 15:09 -16.87246 -67.46118 28904 ft 453 kts 104°
2026-04-26 15:10 -16.88041 -67.42901 29195 ft 456 kts 104°
2026-04-26 15:10 -16.88569 -67.40767 29430 ft 457 kts 104°
2026-04-26 15:10 -16.89723 -67.36492 29841 ft 460 kts 110°
2026-04-26 15:10 -16.91000 -67.33438 30126 ft 462 kts 115°
2026-04-26 15:11 -16.92358 -67.30406 30414 ft 464 kts 115°
2026-04-26 15:11 -16.93728 -67.27326 30663 ft 466 kts 115°
2026-04-26 15:11 -16.95086 -67.24258 30900 ft 468 kts 115°
2026-04-26 15:11 -16.96450 -67.21180 31140 ft 470 kts 115°
2026-04-26 15:12 -16.97834 -67.18060 31392 ft 471 kts 115°
2026-04-26 15:12 -16.99200 -67.14976 31609 ft 473 kts 115°
2026-04-26 15:12 -17.00589 -67.11843 31842 ft 474 kts 115°
2026-04-26 15:12 -17.01967 -67.08740 32157 ft 472 kts 115°
2026-04-26 15:13 -17.03355 -67.05609 32488 ft 472 kts 115°
2026-04-26 15:13 -17.04721 -67.02515 32780 ft 472 kts 114°
2026-04-26 15:13 -17.06099 -66.99383 33141 ft 470 kts 114°
2026-04-26 15:13 -17.07470 -66.96272 33460 ft 470 kts 115°
2026-04-26 15:14 -17.08834 -66.93179 33603 ft 474 kts 115°
2026-04-26 15:14 -17.10216 -66.90057 33724 ft 477 kts 115°
2026-04-26 15:14 -17.11623 -66.86875 33875 ft 479 kts 115°
2026-04-26 15:14 -17.13009 -66.83737 34000 ft 482 kts 115°
2026-04-26 15:15 -17.14428 -66.80521 34171 ft 483 kts 115°
2026-04-26 15:15 -17.15829 -66.77346 34371 ft 482 kts 115°
2026-04-26 15:15 -17.17239 -66.74145 34578 ft 482 kts 114°
2026-04-26 15:15 -17.18631 -66.70978 34728 ft 483 kts 115°
2026-04-26 15:16 -17.20047 -66.67777 34938 ft 482 kts 115°
2026-04-26 15:16 -17.21456 -66.64609 35140 ft 482 kts 115°
2026-04-26 15:16 -17.22858 -66.61464 35290 ft 483 kts 115°
2026-04-26 15:16 -17.24292 -66.58251 35324 ft 483 kts 115°
2026-04-26 15:17 -17.26631 -66.52997 35305 ft 481 kts 115°
2026-04-26 15:17 -17.29930 -66.45542 35322 ft 481 kts 115°
2026-04-26 15:18 -17.32722 -66.39230 35325 ft 482 kts 115°
2026-04-26 15:18 -17.35552 -66.32839 35328 ft 481 kts 115°
2026-04-26 15:19 -17.38356 -66.26478 35328 ft 481 kts 115°
2026-04-26 15:19 -17.40670 -66.21197 35328 ft 481 kts 112°
2026-04-26 15:20 -17.42017 -66.16761 35326 ft 480 kts 101°
2026-04-26 15:20 -17.42367 -66.14461 35325 ft 480 kts 95°
2026-04-26 15:20 -17.42847 -66.07501 35321 ft 480 kts 94°
2026-04-26 15:21 -17.43322 -66.00521 35313 ft 480 kts 94°
2026-04-26 15:21 -17.43803 -65.93536 35300 ft 480 kts 94°
2026-04-26 15:22 -17.44280 -65.86543 35290 ft 481 kts 94°
2026-04-26 15:22 -17.44753 -65.79579 35282 ft 481 kts 94°
2026-04-26 15:23 -17.45223 -65.72584 35282 ft 482 kts 94°
2026-04-26 15:23 -17.45687 -65.65573 35282 ft 482 kts 94°
2026-04-26 15:24 -17.46154 -65.58554 35280 ft 482 kts 93°
2026-04-26 15:24 -17.46619 -65.51596 35281 ft 482 kts 94°
2026-04-26 15:25 -17.47086 -65.44577 35260 ft 482 kts 93°
2026-04-26 15:25 -17.47549 -65.37582 35260 ft 482 kts 94°
2026-04-26 15:26 -17.48019 -65.30587 35235 ft 482 kts 94°
2026-04-26 15:26 -17.48512 -65.23587 35240 ft 482 kts 94°
2026-04-26 15:27 -17.49003 -65.16564 35207 ft 483 kts 94°
2026-04-26 15:27 -17.49482 -65.09581 35189 ft 483 kts 94°
2026-04-26 15:28 -17.49961 -65.02546 35191 ft 483 kts 94°
2026-04-26 15:28 -17.50434 -64.95528 35176 ft 483 kts 94°
2026-04-26 15:29 -17.50895 -64.88547 35179 ft 483 kts 94°
2026-04-26 15:30 -17.51841 -64.74513 35181 ft 483 kts 94°
2026-04-26 15:30 -17.52305 -64.67505 35159 ft 483 kts 94°
2026-04-26 15:31 -17.53000 -64.56978 33574 ft 482 kts 94°
2026-04-26 15:31 -17.53228 -64.53479 32563 ft 484 kts 94°
2026-04-26 15:32 -17.53467 -64.47618 30947 ft 484 kts 92°
2026-04-26 15:32 -17.53556 -64.42905 29533 ft 484 kts 91°
2026-04-26 15:32 -17.53602 -64.39394 28298 ft 485 kts 91°
2026-04-26 15:33 -17.53650 -64.35838 26605 ft 487 kts 90°
2026-04-26 15:33 -17.53719 -64.32314 25592 ft 482 kts 91°
2026-04-26 15:33 -17.53812 -64.28764 24898 ft 486 kts 90°
2026-04-26 15:33 -17.53901 -64.25241 24349 ft 488 kts 90°
2026-04-26 15:34 -17.53989 -64.21680 23780 ft 494 kts 90°
2026-04-26 15:34 -17.54076 -64.18056 23151 ft 491 kts 90°
2026-04-26 15:34 -17.54157 -64.14533 22271 ft 483 kts 90°
2026-04-26 15:34 -17.54232 -64.11058 21361 ft 477 kts 90°
2026-04-26 15:35 -17.54305 -64.07571 20532 ft 471 kts 90°
2026-04-26 15:35 -17.54377 -64.04190 19744 ft 466 kts 90°
2026-04-26 15:35 -17.54455 -64.00786 18964 ft 462 kts 90°
2026-04-26 15:35 -17.54537 -63.97464 18204 ft 458 kts 90°
2026-04-26 15:36 -17.54615 -63.94113 17362 ft 454 kts 90°
2026-04-26 15:36 -17.54688 -63.90832 16632 ft 449 kts 90°
2026-04-26 15:36 -17.54759 -63.87595 15904 ft 445 kts 90°
2026-04-26 15:36 -17.54827 -63.84488 15211 ft 441 kts 90°
2026-04-26 15:37 -17.54857 -63.83098 14929 ft 440 kts 90°
2026-04-26 15:37 -17.54924 -63.79931 14746 ft 423 kts 90°
2026-04-26 15:37 -17.54988 -63.76943 14621 ft 401 kts 90°
2026-04-26 15:38 -17.55050 -63.74119 14464 ft 371 kts 90°
2026-04-26 15:38 -17.55109 -63.71476 13796 ft 362 kts 89°
2026-04-26 15:38 -17.55164 -63.68836 12940 ft 358 kts 89°
2026-04-26 15:38 -17.55216 -63.66269 12133 ft 354 kts 89°
2026-04-26 15:39 -17.55269 -63.63713 11303 ft 350 kts 89°
2026-04-26 15:39 -17.55320 -63.61167 10512 ft 346 kts 89°
2026-04-26 15:39 -17.55372 -63.58662 9940 ft 345 kts 89°
2026-04-26 15:39 -17.55406 -63.56988 9455 ft 341 kts 89°
2026-04-26 15:40 -17.55474 -63.53700 8323 ft 336 kts 88°
2026-04-26 15:40 -17.55525 -63.51246 7468 ft 334 kts 88°
2026-04-26 15:40 -17.55572 -63.48832 6659 ft 330 kts 88°
2026-04-26 15:40 -17.55619 -63.46447 5870 ft 327 kts 88°
2026-04-26 15:41 -17.55668 -63.44133 5599 ft 307 kts 88°
2026-04-26 15:41 -17.55719 -63.41967 5480 ft 284 kts 88°
2026-04-26 15:41 -17.55762 -63.39990 5351 ft 263 kts 87°
2026-04-26 15:41 -17.55798 -63.38142 5227 ft 244 kts 87°
2026-04-26 15:42 -17.55828 -63.36372 5090 ft 241 kts 86°
2026-04-26 15:42 -17.55855 -63.34634 4972 ft 239 kts 86°
2026-04-26 15:42 -17.55882 -63.32904 4859 ft 233 kts 87°
2026-04-26 15:42 -17.55914 -63.31247 4734 ft 224 kts 87°
2026-04-26 15:43 -17.55946 -63.29627 4561 ft 218 kts 86°
2026-04-26 15:43 -17.55974 -63.28055 4301 ft 215 kts 86°
2026-04-26 15:43 -17.56027 -63.24953 3768 ft 212 kts 86°
2026-04-26 15:44 -17.56053 -63.23399 3540 ft 212 kts 87°
2026-04-26 15:44 -17.56116 -63.20345 3278 ft 203 kts 89°
2026-04-26 15:44 -17.56579 -63.18997 3135 ft 198 kts 129°
2026-04-26 15:45 -17.58658 -63.17456 2741 ft 181 kts 149°
2026-04-26 15:45 -17.59735 -63.16710 2298 ft 187 kts 148°
2026-04-26 15:46 -17.61833 -63.15310 1630 ft 161 kts 151°
2026-04-26 15:46 -17.62713 -63.14711 1395 ft 143 kts 149°
2026-04-26 15:46 -17.63531 -63.14167 1244 ft 130 kts 149°
2026-04-26 15:46 -17.64011 -63.13851 1229 ft 111 kts 147°
2026-04-26 15:47 -17.64629 -63.13435 1232 ft 47 kts 147°
2026-04-26 15:47 -17.65030 -63.13165 1231 ft 17 kts 150°
2026-04-26 15:47 -17.65119 -63.13193 1231 ft 15 kts 238°
2026-04-26 15:48 -17.65176 -63.13292 1231 ft 17 kts 235°
2026-04-26 15:48 -17.65219 -63.13359 1231 ft 2 kts 237°
2026-04-26 15:48 -17.65219 -63.13360 1231 ft 0 kts 237°
2026-04-26 15:48 -17.65200 -63.13330 1231 ft 10 kts 237°
2026-04-26 15:49 -17.65175 -63.13290 1231 ft 7 kts 236°
2026-04-26 15:49 -17.65173 -63.13294 1231 ft 3 kts 269°
2026-04-26 15:49 -17.65162 -63.13307 1231 ft 2 kts 321°
2026-04-26 15:49 -17.65151 -63.13315 1231 ft 2 kts 324°
2026-04-26 15:50 -17.65127 -63.13333 1231 ft 4 kts 325°
2026-04-26 15:50 -17.65105 -63.13349 1231 ft 3 kts 326°
2026-04-26 15:50 -17.65087 -63.13361 1231 ft 3 kts 327°
2026-04-26 15:50 -17.65074 -63.13370 1231 ft 3 kts 327°
2026-04-26 15:51 -17.65028 -63.13401 1231 ft 10 kts 327°
2026-04-26 15:51 -17.64972 -63.13439 1231 ft 9 kts 327°
2026-04-26 15:51 -17.64922 -63.13473 1231 ft 9 kts 327°
2026-04-26 15:51 -17.64835 -63.13529 1231 ft 21 kts 329°
2026-04-26 15:52 -17.64671 -63.13630 1232 ft 32 kts 322°
2026-04-26 15:52 -17.64573 -63.13707 1231 ft 11 kts 328°
2026-04-26 15:52 -17.64499 -63.13757 1231 ft 13 kts 327°
2026-04-26 15:52 -17.64448 -63.13791 1231 ft 13 kts 328°
2026-04-26 15:53 -17.64411 -63.13878 1231 ft 11 kts 240°
2026-04-26 15:53 -17.64456 -63.13950 1231 ft 13 kts 237°
2026-04-26 15:53 -17.64523 -63.14020 1231 ft 15 kts 186°
2026-04-26 15:53 -17.64595 -63.13985 1231 ft 10 kts 147°
2026-04-26 15:54 -17.64629 -63.14007 1231 ft 4 kts 241°
2026-04-26 15:54 -17.64647 -63.14039 1231 ft 5 kts 237°
2026-04-26 15:54 -17.64654 -63.14050 1231 ft 0 kts 237°